Wind_Speed
23 24 25 26 26 26 27 26 26 26 27 27 28 28 28 28 28 27 26 25 24 23 23 23 23 23 23 23 23 23 23 23 22 21 21 20 20 19 19 19 19 19 20 20 20 21 22 22 22 22 23 23 23 23 23 23 23 23 23 24 24 24 24 24 24 24 25 25 26 26 27 27 27 28 29 29 30 30 31 30 30 30 31 31 31 31
24 25 26 26 26 26 26 26 26 27 27 28 28 29 29 29 28 27 26 24 23 22 22 22 23 23 23 23 22 22 22 21 21 20 20 19 19 19 19 19 19 20 20 21 21 21 22 22 22 22 22 22 22 22 22 22 22 23 23 23 24 24 24 24 24 25 26 26 27 27 28 28 29 29 30 30 31 31 31 31 31 31 31 31 31 31
25 25 26 26 26 26 26 27 27 27 28 28 29 29 29 29 28 27 26 24 23 22 22 22 22 23 23 22 22 21 21 20 20 19 19 19 19 19 20 20 20 20 20 21 21 21 21 21 21 22 21 22 21 21 21 21 22 22 23 24 24 25 25 25 26 26 27 27 28 28 29 29 30 30 31 31 31 31 30 30 30 30 30 30 30 30
25 25 25 26 26 26 27 27 28 28 28 28 28 28 28 28 27 27 25 24 23 23 22 22 22 23 22 22 21 20 20 19 19 19 19 19 20 20 20 20 20 20 20 20 20 20 20 20 20 20 20 21 21 21 21 21 22 22 23 24 25 25 26 26 27 27 28 28 29 29 30 30 31 31 31 30 30 30 30 30 30 30 30 30 30 30
25 25 25 26 26 27 27 28 28 28 28 28 28 28 28 27 27 26 25 24 23 23 23 23 23 23 22 22 21 20 19 19 19 19 20 20 20 20 20 20 19 19 18 18 18 18 18 18 18 19 19 19 20 20 20 21 22 23 24 25 25 26 27 27 28 28 29 29 30 30 30 30 30 30 30 30 30 29 29 29 29 29 29 29 29 29
25 25 25 25 26 27 28 28 28 28 28 28 28 28 28 27 26 25 24 24 24 24 25 25 24 23 22 21 20 20 19 19 19 20 20 20 20 19 19 18 18 17 17 16 16 16 16 17 17 17 18 18 19 19 20 21 22 23 24 25 26 27 27 28 29 29 30 30 30 30 30 30 30 29 29 28 28 28 28 28 28 28 28 28 28 28
25 25 25 25 26 27 28 28 28 27 27 28 28 28 27 27 26 25 24 24 25 26 26 26 25 23 22 20 20 19 20 20 20 20 20 19 19 18 17 17 16 16 16 16 16 16 16 16 17 17 18 18 18 19 19 20 21 22 23 24 25 26 27 28 29 30 30 31 31 31 31 30 29 28 28 27 27 27 27 27 27 27 27 28 28 28
25 25 25 25 26 27 28 28 27 26 26 26 27 27 27 26 25 25 25 26 26 27 28 27 26 23 21 20 20 20 20 21 20 20 19 19 18 18 18 17 17 17 17 16 16 17 17 17 17 18 18 18 18 18 19 19 20 21 22 23 24 25 26 27 28 29 29 30 30 31 31 30 29 28 28 27 27 27 27 27 27 27 27 27 27 28
24 24 25 25 25 26 27 27 27 26 25 25 25 25 25 25 25 25 26 27 27 28 28 28 26 24 22 21 21 21 21 21 21 20 20 20 20 20 20 20 19 19 19 18 18 18 18 18 18 17 17 17 16 17 17 18 19 20 21 22 23 24 24 25 26 27 28 29 29 30 30 30 29 29 29 28 28 28 28 28 27 27 27 27 27 28
23 24 24 25 25 26 26 27 27 26 25 24 23 22 22 23 25 26 27 27 28 28 27 26 25 24 23 22 22 22 22 22 21 21 21 21 22 22 22 22 22 21 21 20 19 19 18 18 17 17 16 16 16 16 17 18 19 20 21 22 23 24 24 25 26 26 27 27 28 28 28 29 29 29 29 29 28 28 28 28 28 28 28 28 28 28
23 23 23 24 25 26 26 26 27 26 25 23 22 22 21 22 24 26 28 29 29 28 27 25 24 24 25 24 23 23 23 23 24 23 23 23 24 24 24 24 24 23 22 22 20 19 18 18 17 16 16 15 16 16 17 18 19 20 21 22 23 24 25 25 26 26 26 26 26 27 27 27 28 28 28 28 28 28 28 28 28 29 29 29 29 29
22 22 23 24 24 25 26 26 26 24 22 21 21 21 21 22 24 26 28 29 30 28 26 25 25 25 25 25 25 24 24 24 25 26 27 27 27 27 27 27 26 25 24 23 21 20 19 18 17 17 16 16 17 17 18 19 20 21 22 23 24 25 25 25 26 26 25 25 25 26 26 27 27 27 28 28 28 28 29 29 29 30 30 30 30 30
21 22 23 24 25 25 25 23 21 20 19 19 20 20 21 24 26 27 27 28 27 26 25 25 26 26 25 25 25 25 25 26 26 27 27 28 28 29 29 29 28 26 25 24 22 21 19 19 19 18 18 18 18 19 20 21 21 22 23 24 24 25 25 25 25 25 25 25 25 26 26 26 27 27 27 28 28 29 29 30 30 31 31 31 31 31
21 22 23 24 24 24 22 19 17 17 18 19 21 23 24 26 27 27 27 26 24 23 24 25 26 26 25 25 25 25 25 26 26 26 26 26 27 29 29 29 28 27 26 25 24 22 20 20 20 20 19 19 20 21 21 22 23 23 23 24 24 24 25 25 25 25 25 25 25 26 26 26 27 27 27 28 28 29 29 30 30 30 31 31 31 31
21 21 22 22 21 20 18 17 17 18 19 21 24 26 27 28 27 25 24 23 22 22 22 24 25 25 23 23 24 25 25 25 25 25 25 26 27 28 29 29 28 27 26 25 24 23 21 21 21 22 21 21 21 22 23 23 24 24 24 24 24 24 23 23 23 23 24 24 24 24 25 25 26 27 27 27 28 28 29 29 30 30 30 30 31 31
21 21 21 19 18 17 17 18 18 20 22 24 26 26 26 25 24 21 20 20 21 22 22 23 24 24 23 23 23 24 25 25 24 25 26 27 28 28 28 29 29 28 26 25 25 24 23 23 23 23 23 23 23 23 23 24 24 24 24 24 23 23 22 22 22 22 23 23 23 24 24 25 26 26 27 27 28 28 29 29 29 30 30 30 30 31
19 19 18 18 18 18 18 20 21 22 23 25 25 25 23 22 20 19 19 19 20 21 21 23 23 23 24 24 24 24 24 24 25 26 27 29 29 29 28 28 29 29 27 26 25 25 25 25 25 25 25 25 25 25 25 25 25 24 24 23 22 22 21 21 21 22 22 23 24 24 25 25 26 26 27 27 27 28 28 29 29 29 30 30 30 31
17 17 18 18 19 19 19 20 21 22 23 23 22 21 20 19 19 19 20 20 21 22 22 23 23 23 25 24 24 25 25 26 27 29 29 31 31 30 28 27 28 28 28 28 27 27 27 28 28 28 28 27 27 26 26 25 25 24 23 22 22 21 21 21 22 22 23 23 24 24 25 25 26 26 26 27 27 27 28 28 29 29 29 30 30 30
18 18 19 19 19 19 19 19 20 20 20 20 20 20 19 19 19 20 20 21 22 23 24 24 23 24 25 25 26 27 27 28 28 29 30 32 32 30 27 27 27 28 29 29 28 28 29 30 30 30 30 30 29 28 27 26 25 24 23 22 22 21 21 22 22 22 22 23 23 24 24 25 25 25 26 26 26 27 27 28 28 28 29 29 30 30
20 20 20 20 20 19 19 19 20 20 20 19 19 19 20 20 20 21 21 22 23 24 25 25 24 24 25 27 29 29 29 30 30 30 30 32 31 29 27 27 27 28 29 29 29 30 31 32 32 32 32 31 31 30 29 27 26 25 23 23 22 22 22 22 22 22 22 22 23 23 24 24 24 25 25 26 26 26 27 27 27 28 28 28 29 29
22 21 21 20 20 20 21 20 21 20 19 18 18 18 20 21 21 22 22 23 23 24 25 24 24 26 28 29 31 32 30 30 30 30 31 31 31 29 27 27 27 28 29 30 30 31 32 33 33 33 33 32 32 31 29 28 27 25 24 24 24 23 23 23 23 23 23 23 23 23 23 23 24 24 25 25 25 26 26 27 27 28 28 28 29 29
21 22 21 21 21 21 21 22 21 19 17 16 17 18 20 21 22 22 22 23 23 23 24 25 27 30 32 33 33 32 29 28 27 28 29 30 31 30 27 26 27 27 29 30 31 31 32 32 33 33 33 32 32 31 30 28 27 26 26 25 25 25 25 24 24 24 23 23 23 23 23 24 24 25 25 25 26 27 27 28 28 29 29 29 30 30
21 21 21 21 21 22 22 22 20 18 16 16 17 19 19 20 20 21 22 23 24 26 28 30 32 33 32 32 31 29 27 26 25 25 25 27 29 29 27 26 26 27 28 29 30 30 31 32 32 33 33 32 32 31 30 29 28 27 27 27 27 26 26 25 25 25 24 24 24 24 24 25 25 26 26 27 28 28 29 29 29 30 30 30 31 31
21 21 22 22 22 21 21 20 18 17 16 17 18 18 18 19 20 22 24 27 29 31 32 33 32 31 30 29 29 27 26 25 24 24 24 24 26 27 27 26 26 27 28 29 29 30 31 31 32 33 33 32 32 31 30 29 29 28 28 28 28 27 27 26 26 26 25 25 25 25 25 25 25 26 26 26 27 27 28 28 29 29 29 29 30 30
22 22 22 21 20 18 17 16 16 15 15 16 17 19 20 22 24 26 28 29 30 30 30 29 28 29 29 28 28 27 25 24 23 23 23 23 25 27 27 26 26 27 28 29 30 30 30 31 32 32 32 32 31 31 30 29 29 29 29 29 28 28 27 27 26 26 25 25 25 24 24 23 23 23 23 23 23 24 25 25 25 26 27 27 28 29
21 21 21 20 18 17 16 16 16 17 17 18 20 21 23 25 26 27 27 27 27 26 26 26 26 27 28 28 28 27 25 24 23 22 22 22 25 27 27 27 26 27 28 30 30 29 30 31 32 32 32 32 32 31 31 30 30 30 29 28 28 28 27 27 26 25 25 24 23 23 22 22 21 21 21 21 21 22 22 23 24 24 25 26 27 28
20 20 20 19 19 19 19 19 19 18 18 19 19 21 23 24 25 26 26 25 25 24 24 25 26 26 27 27 27 26 25 24 23 22 21 22 24 26 27 27 27 27 28 30 30 30 30 31 32 32 32 32 33 33 32 32 31 30 29 28 28 27 26 26 25 25 24 24 23 23 23 22 22 22 22 22 22 22 23 23 24 24 25 26 28 29
18 18 18 18 18 18 18 17 17 17 17 18 19 20 21 23 24 24 24 23 23 23 23 24 24 24 25 26 26 26 25 24 22 21 21 22 24 26 27 27 27 27 28 30 31 31 31 31 31 31 32 33 33 34 34 33 32 31 29 28 27 27 26 26 25 25 25 25 25 24 24 24 23 23 23 23 23 23 23 23 24 24 25 26 27 28
17 16 16 16 15 15 16 16 16 16 17 18 18 19 20 21 21 22 22 22 21 21 22 22 22 23 23 24 26 26 26 23 21 20 21 22 24 26 27 27 27 27 28 30 31 31 30 29 29 29 30 32 33 34 34 34 33 32 31 30 29 28 27 27 26 26 26 26 26 25 25 24 24 23 23 22 22 22 22 22 22 23 24 25 26 27
14 14 13 13 14 14 15 16 16 16 17 17 18 18 18 19 19 19 20 20 19 19 20 20 21 21 21 23 25 26 24 22 21 21 22 23 25 27 28 28 28 27 27 28 29 30 30 29 28 28 29 31 33 34 34 34 33 33 33 32 31 30 29 29 29 28 28 27 26 26 25 24 23 23 22 21 21 20 20 19 20 21 23 24 25 27
14 14 14 14 14 15 16 16 16 16 16 17 17 17 17 18 18 18 18 18 17 17 17 18 19 19 19 21 22 23 23 23 22 23 24 24 26 27 28 28 28 28 26 25 26 27 28 30 30 31 31 32 33 34 34 34 34 34 34 34 33 33 32 31 31 30 29 28 27 26 25 24 23 22 21 20 19 19 18 18 18 19 21 23 25 25
14 14 15 15 15 15 16 16 16 16 16 16 16 16 16 16 17 17 17 16 16 16 16 17 18 18 19 20 21 23 25 25 25 24 24 25 26 27 27 28 28 28 26 25 24 25 25 29 33 35 34 33 33 34 34 34 34 34 34 34 34 34 33 33 32 31 30 28 27 25 24 23 22 21 20 19 19 18 17 16 16 17 19 22 23 24
15 15 15 15 15 16 16 16 16 16 16 16 16 16 16 16 17 17 16 16 15 15 15 16 17 18 19 20 23 25 27 27 26 24 24 25 26 27 27 28 28 28 27 26 25 25 27 30 33 36 36 35 35 34 34 34 34 34 34 34 35 35 34 34 33 32 31 29 27 25 24 22 21 21 20 19 18 17 17 16 16 16 18 19 21 22
14 14 15 15 15 15 16 16 16 16 16 16 16 16 16 17 17 16 16 16 15 15 15 15 16 18 19 21 24 26 28 27 26 25 24 25 26 27 27 27 28 28 28 27 26 26 28 30 32 33 34 36 35 34 34 33 33 34 34 34 34 35 35 35 34 33 31 30 28 27 25 23 22 21 20 19 18 17 17 17 16 16 17 18 19 21
14 14 14 14 14 15 15 15 15 15 16 16 16 16 16 16 16 16 16 16 15 15 15 16 16 18 19 21 24 27 28 28 27 25 24 23 24 25 26 27 28 28 28 28 28 28 29 29 30 31 33 35 36 36 34 33 33 33 33 34 34 35 35 35 34 33 32 31 30 28 27 26 24 23 21 20 19 19 18 18 17 17 17 18 19 21
14 14 14 14 14 14 15 15 15 16 16 16 16 16 16 16 16 16 16 15 15 15 16 16 17 19 20 21 23 26 28 28 27 25 23 21 21 23 25 27 27 27 28 29 29 29 30 30 31 32 33 34 35 36 35 34 33 33 33 34 35 35 35 34 33 33 32 32 31 30 29 28 27 26 24 22 21 21 20 20 19 19 19 19 19 20
13 13 14 14 14 15 15 15 15 15 15 16 16 16 15 15 15 15 15 15 15 15 16 17 18 20 22 23 24 26 28 28 26 24 21 20 19 21 23 25 25 25 26 28 29 30 31 32 33 33 32 32 32 34 35 35 35 35 35 35 35 35 35 34 33 32 32 33 33 32 31 30 30 28 27 25 24 23 22 21 20 20 20 20 20 20
13 13 14 14 15 15 15 15 15 15 15 15 15 15 14 14 14 15 15 15 15 16 17 18 19 21 23 24 26 27 27 26 25 23 21 19 19 19 21 24 24 24 25 26 28 30 31 32 32 33 33 32 32 34 36 35 36 37 37 37 36 35 34 33 32 32 32 33 33 33 32 32 31 30 29 28 27 26 25 24 22 21 21 21 21 21
13 14 14 15 15 16 15 15 15 14 14 14 14 14 14 14 14 14 14 14 15 16 17 19 20 22 23 24 26 26 26 25 24 22 21 20 19 19 20 22 24 24 24 25 27 29 30 32 33 33 34 34 35 36 37 37 37 38 38 38 37 36 34 33 32 32 33 33 33 34 33 32 32 31 31 30 29 29 29 27 26 24 24 24 24 23
14 14 15 15 15 15 15 14 14 14 14 14 14 13 13 13 14 14 14 14 15 16 18 19 21 22 24 25 26 26 25 24 24 23 22 21 20 20 20 22 23 24 25 25 26 28 30 31 32 33 34 35 36 37 38 38 37 37 37 37 37 37 35 34 34 33 33 33 33 34 34 33 33 32 32 32 31 31 31 31 29 28 27 27 28 28
14 15 15 15 14 14 14 14 14 14 14 14 14 13 13 13 14 14 14 15 16 17 18 20 21 23 24 25 26 26 25 25 24 23 22 21 21 20 20 21 22 24 25 26 27 28 29 31 32 33 34 35 36 36 38 38 38 37 37 37 37 38 38 37 35 34 33 33 33 33 34 34 34 33 33 33 32 32 32 32 31 31 29 29 29 29
15 15 15 14 14 13 13 13 13 13 14 14 14 14 13 14 14 14 15 16 17 18 19 20 22 23 25 26 26 26 26 26 25 25 23 22 21 21 21 21 22 23 25 26 28 28 29 30 32 33 34 34 35 36 37 39 39 38 37 37 38 39 39 38 36 34 33 34 34 34 34 34 34 34 34 34 33 33 33 32 32 32 31 31 30 30
15 14 14 13 13 13 13 13 13 13 13 13 13 13 13 13 14 15 16 16 17 18 19 20 22 24 25 27 27 27 27 27 26 25 24 23 22 21 21 21 22 23 24 26 28 29 30 30 31 32 33 34 35 36 37 38 39 38 37 37 37 37 37 38 37 36 35 35 35 34 34 34 35 35 35 35 35 34 34 33 33 32 32 32 32 32
14 13 12 12 12 13 13 13 13 13 13 13 13 13 13 13 14 15 16 16 17 18 19 20 22 24 26 27 28 29 28 27 27 26 25 24 23 22 22 22 23 23 24 26 28 29 30 31 31 32 33 33 34 35 36 37 38 39 38 37 36 36 36 37 38 37 37 36 36 35 35 35 35 36 36 36 36 36 35 35 35 34 34 33 33 32
12 12 12 12 12 13 13 14 13 13 13 13 13 13 13 14 14 15 16 16 17 18 19 21 23 25 26 28 29 29 29 29 28 27 26 25 24 23 23 24 24 25 25 26 27 29 30 32 33 33 33 33 34 36 37 38 38 38 38 37 36 36 37 38 37 37 37 37 36 36 36 36 36 36 37 37 37 37 36 36 36 36 35 35 34 33
12 12 12 13 13 14 14 14 14 14 14 14 14 14 14 14 14 15 15 16 17 19 21 22 24 25 26 28 29 29 30 30 30 29 28 26 26 25 25 25 25 26 26 27 28 29 30 31 33 34 34 35 35 36 36 36 37 37 38 37 37 37 37 37 37 36 36 36 36 36 37 36 36 36 36 37 38 37 37 37 36 36 36 35 35 34
12 13 13 13 14 14 15 15 15 16 16 16 16 15 15 15 15 15 16 17 19 20 22 23 24 25 26 27 28 29 30 31 31 31 29 28 27 26 26 26 26 27 27 28 28 29 30 32 33 33 33 34 35 36 36 35 35 35 36 37 37 37 38 38 37 36 36 36 36 37 38 37 36 36 37 38 38 37 37 36 36 36 35 35 35 35
13 13 14 14 15 15 16 16 16 17 18 17 17 16 16 16 16 16 17 19 20 21 23 24 25 26 27 28 28 29 29 30 31 32 31 30 29 29 28 28 28 27 28 28 29 30 31 32 32 32 31 31 33 35 35 35 35 35 36 36 37 37 38 38 38 37 36 36 37 38 38 38 38 38 39 39 38 38 37 37 36 35 35 34 34 34
13 14 14 15 16 16 17 17 17 18 18 18 18 18 18 17 17 18 19 20 21 22 23 24 25 26 27 28 29 29 29 30 31 32 32 31 31 30 30 30 29 29 29 29 30 31 32 32 32 31 29 29 30 32 34 35 35 35 35 35 36 37 38 38 38 37 36 36 37 38 38 38 38 38 38 38 38 38 38 37 36 35 34 33 33 33
14 14 14 15 16 17 17 18 18 18 18 18 19 19 19 19 19 20 20 21 21 22 23 24 25 26 27 28 29 29 29 30 31 32 32 31 31 31 31 31 31 31 31 31 31 32 32 32 32 30 29 27 27 29 31 34 35 35 34 35 35 35 36 37 37 37 37 37 38 38 39 39 38 38 36 36 37 38 39 37 36 34 33 32 32 32
13 14 14 15 16 17 17 18 18 18 18 19 19 20 20 21 21 21 21 21 22 22 23 25 26 26 27 28 29 29 29 30 31 32 32 32 31 31 32 32 32 32 32 32 32 31 31 30 30 30 29 27 25 25 27 30 33 34 34 34 34 34 34 36 37 37 38 38 38 38 38 38 37 37 36 36 36 37 37 36 35 34 33 32 32 32
Wind_Direction
290 291 292 293 295 298 299 301 303 305 306 306 307 306 305 305 304 304 304 304 303 302 302 302 302 301 301 300 299 298 297 296 296 296 296 295 295 295 295 295 294 293 292 291 289 288 287 286 285 284 284 284 283 283 283 284 284 285 284 284 283 282 282 282 281 281 280 279 278 277 277 275 274 273 271 270 269 268 267 268 269 270 271 272 272 273
292 293 294 296 298 300 302 303 305 306 307 307 307 307 306 306 305 305 305 305 304 304 303 303 303 303 303 302 301 300 299 299 298 298 298 298 298 297 297 297 297 296 295 294 293 291 290 289 288 286 285 285 284 283 283 283 284 285 285 284 283 282 281 281 280 279 278 278 277 277 276 275 275 274 274 273 272 272 272 272 272 273 273 274 274 274
293 294 296 298 300 301 303 304 305 306 307 307 307 307 307 307 306 306 306 306 305 305 305 305 306 306 305 305 304 303 302 302 301 301 301 301 300 300 300 299 298 297 296 295 294 292 292 290 290 289 287 286 285 284 283 282 283 284 284 283 282 280 279 279 278 278 278 277 277 277 276 276 275 275 275 275 275 275 275 275 274 274 274 274 274 274
294 296 297 299 301 302 303 304 305 306 307 307 307 307 307 307 307 306 306 306 306 306 306 308 309 309 309 308 307 306 305 304 303 303 303 303 302 302 301 300 299 298 297 295 294 293 291 291 290 289 288 286 285 283 282 281 281 282 282 282 280 279 278 277 277 276 276 276 276 276 275 275 275 275 275 275 275 275 275 275 274 273 273 273 273 273
295 297 298 300 301 301 302 304 305 306 307 308 308 308 308 307 306 306 306 307 307 308 310 312 313 313 313 311 310 308 307 306 305 305 304 303 303 302 302 301 300 298 297 296 294 293 292 291 290 289 288 286 285 284 283 282 281 281 280 280 280 278 278 277 276 276 275 275 275 275 275 275 275 275 275 275 275 275 275 274 274 273 273 273 273 273
296 297 298 299 300 301 302 303 305 307 309 310 310 309 308 307 307 306 307 308 310 312 314 316 317 316 315 313 311 309 308 306 306 305 304 303 303 302 302 301 301 300 298 297 296 296 296 295 295 294 293 291 290 288 286 284 282 281 279 280 279 278 277 276 275 275 274 274 274 274 275 275 275 275 275 275 275 275 275 274 273 273 272 272 272 272
296 296 298 298 299 300 301 303 305 308 310 311 311 310 309 308 308 308 310 311 313 315 317 318 318 317 315 314 312 310 308 307 306 305 304 304 304 304 305 305 305 304 304 304 304 304 304 304 304 303 300 298 295 292 289 287 285 282 281 280 279 278 277 276 276 275 274 274 273 273 274 274 275 275 275 275 274 274 273 273 272 272 271 271 271 271
295 296 296 297 299 300 302 303 306 309 311 311 311 310 310 310 310 311 313 314 316 317 318 318 318 317 315 314 313 311 310 309 308 308 309 309 310 311 312 313 313 314 314 315 315 314 314 312 311 308 305 302 299 296 293 290 288 286 285 283 282 281 280 279 278 277 276 275 274 273 272 272 273 273 273 273 272 272 272 271 272 272 272 272 272 271
293 295 296 297 298 300 302 304 307 309 311 311 310 310 310 311 311 313 314 315 315 316 317 318 317 317 315 315 314 313 313 313 314 316 317 318 320 321 321 321 321 322 322 322 321 320 318 316 313 310 306 303 300 297 294 292 291 289 288 287 286 285 283 282 280 279 277 276 275 273 272 271 270 270 271 271 271 272 272 272 273 273 273 273 272 272
292 294 296 297 299 301 303 305 308 310 311 311 310 310 310 311 312 313 313 313 314 315 317 317 317 316 316 316 316 317 319 320 321 322 323 324 325 326 325 325 325 325 325 324 323 322 320 317 314 310 307 303 300 298 295 293 292 290 289 288 287 286 285 283 282 280 278 276 275 273 272 271 270 270 270 271 272 273 273 273 273 273 273 272 272 271
293 294 296 298 300 302 304 306 309 312 312 312 312 311 310 310 311 311 311 312 313 315 316 317 316 317 318 319 321 322 324 325 325 325 325 326 326 327 327 326 326 326 325 324 323 322 321 318 315 311 308 305 302 300 297 295 293 292 290 289 287 286 285 284 282 281 279 277 276 274 273 272 271 271 271 272 273 273 273 273 272 271 271 270 270 269
293 295 296 298 301 304 306 309 312 313 313 312 311 310 308 308 310 311 310 311 313 316 317 317 317 318 319 322 324 326 328 327 326 326 327 327 328 328 327 326 326 325 325 324 324 323 322 319 316 313 310 307 304 302 300 298 295 294 292 290 288 286 285 284 283 281 280 279 277 276 275 274 273 273 273 273 273 272 272 272 271 270 270 270 269 269
294 296 298 300 303 306 309 311 311 310 308 306 305 305 305 307 310 311 310 311 313 316 318 319 320 320 321 323 326 328 328 326 325 324 324 325 326 326 325 323 323 324 324 324 324 324 323 319 316 314 311 309 306 304 302 299 297 296 294 292 290 289 287 285 284 283 282 280 279 278 276 276 275 275 274 274 274 273 272 272 271 271 271 270 270 270
295 298 300 303 305 308 310 309 306 302 300 300 301 304 306 309 311 312 312 313 314 317 320 320 320 321 322 324 326 327 326 323 322 321 320 320 320 321 320 318 319 321 323 322 322 323 322 319 316 314 312 309 307 305 303 301 299 298 297 296 295 293 291 289 287 286 284 282 280 279 278 277 276 276 276 275 275 275 274 274 273 273 272 272 271 271
297 300 302 303 305 306 305 303 299 297 297 298 301 305 308 310 312 314 315 315 318 320 321 319 318 318 318 319 323 324 322 319 317 315 313 314 315 317 317 315 316 319 321 321 321 322 321 319 317 315 313 310 308 306 304 303 302 301 301 300 299 297 295 293 290 288 285 283 282 280 279 278 278 278 277 277 276 276 276 275 274 274 273 272 272 271
298 300 302 302 302 300 298 296 295 295 297 299 303 306 309 311 314 316 316 317 318 319 318 316 315 314 314 317 320 322 319 315 312 311 310 309 312 316 316 314 314 316 320 321 321 321 321 320 318 316 314 312 310 309 307 306 305 304 304 303 301 299 297 295 292 290 288 286 285 283 282 281 279 278 278 277 276 276 276 275 275 274 273 273 272 271
297 299 299 299 297 295 294 294 294 296 299 302 306 309 311 313 315 318 318 317 316 315 313 313 312 312 312 314 318 320 318 313 309 308 308 307 311 316 317 314 313 316 320 322 322 322 322 322 320 318 316 315 313 312 311 310 309 308 307 305 303 301 299 297 295 294 292 290 287 285 283 282 280 279 278 277 277 276 276 275 275 274 274 273 272 271
295 295 294 294 293 293 294 296 297 299 302 305 309 312 314 315 317 319 318 316 314 311 309 310 309 307 307 308 311 315 314 310 307 306 306 307 311 316 319 316 315 316 320 322 323 323 323 323 322 320 319 317 317 316 315 315 314 313 311 309 306 304 302 300 298 295 293 290 287 285 283 282 280 279 279 278 277 277 276 276 275 275 274 273 272 271
290 290 291 292 292 293 295 297 299 302 304 307 310 312 313 315 317 316 313 313 312 310 308 307 304 303 303 303 306 310 310 307 305 305 305 306 312 317 319 317 316 316 319 321 322 323 324 323 322 321 320 320 320 320 320 319 319 318 316 314 311 308 305 302 299 297 294 291 288 286 284 282 280 279 279 278 278 277 277 276 276 275 274 274 273 273
288 289 289 291 293 295 296 297 300 302 305 309 314 316 315 314 313 312 310 309 309 308 307 304 301 300 299 300 303 307 309 306 304 304 304 307 312 317 319 317 315 316 318 320 322 323 323 323 322 321 321 321 322 322 323 323 323 322 319 317 314 311 308 306 303 300 297 294 291 288 286 283 281 280 279 278 277 277 277 276 276 275 275 275 274 273
289 290 292 294 295 296 296 298 301 304 308 314 318 318 315 314 312 311 310 309 308 305 303 299 297 296 297 298 301 306 309 307 305 304 306 309 313 317 319 317 315 315 316 318 321 323 322 321 320 320 321 322 323 324 324 325 324 323 321 319 316 314 311 309 307 305 302 299 295 292 289 287 285 284 282 281 279 278 277 277 276 275 275 274 273 272
290 292 294 295 295 295 296 298 302 307 315 320 319 316 315 314 312 310 309 306 302 299 296 294 293 294 296 298 302 307 310 308 306 306 308 309 312 317 320 318 315 314 314 317 319 320 319 318 317 318 320 321 323 324 324 325 324 323 322 320 318 317 315 313 310 308 305 303 300 297 295 293 291 289 287 285 283 280 278 277 276 274 274 273 272 271
292 294 295 295 295 296 298 301 307 315 323 323 318 314 313 311 308 304 300 296 294 293 292 293 294 296 299 301 305 309 311 311 311 310 309 306 309 315 319 317 314 312 311 314 316 316 316 315 315 316 318 321 322 324 324 325 324 324 323 322 320 319 317 316 313 311 308 305 303 300 298 295 292 290 287 284 282 280 278 277 276 275 274 273 272 271
293 294 294 296 298 300 303 307 313 318 321 317 313 310 305 299 294 290 289 289 291 292 294 296 297 299 302 305 308 310 312 313 313 312 310 306 307 311 315 315 313 311 310 312 313 314 314 314 314 316 317 320 322 324 325 325 325 324 324 323 322 321 320 318 315 312 308 305 303 299 296 293 290 287 284 281 279 278 277 276 275 275 274 273 272 272
293 294 295 297 299 301 302 304 305 304 299 295 291 288 287 285 284 285 287 290 293 295 297 298 298 299 303 307 309 311 314 314 315 314 312 308 307 310 313 314 312 310 309 311 313 313 312 312 313 315 317 320 322 324 325 325 325 325 325 325 324 323 321 318 315 312 309 306 303 300 297 294 292 289 286 284 282 280 279 278 277 276 275 274 273 273
292 292 293 293 292 289 284 281 278 276 275 276 278 281 283 286 288 290 293 294 296 297 297 297 297 299 304 307 309 311 314 315 316 317 315 310 307 309 313 314 313 311 309 310 312 312 311 311 313 315 317 321 323 325 326 326 326 326 326 326 325 324 322 319 317 314 312 310 308 306 304 302 300 297 295 292 290 287 285 283 281 279 278 277 276 275
289 288 287 286 284 281 279 277 275 276 277 280 283 287 290 293 294 295 296 296 297 297 296 296 297 300 304 306 308 311 314 316 317 319 319 313 308 308 312 314 313 311 309 309 310 310 310 311 313 316 318 322 324 325 326 326 327 327 327 327 326 325 323 321 320 319 317 316 315 313 311 309 306 304 301 298 295 292 288 286 283 280 279 278 277 276
286 285 284 283 283 284 284 285 286 287 288 290 292 294 295 295 294 294 294 296 297 296 295 295 296 299 302 305 309 312 315 317 319 321 321 316 310 307 311 314 313 311 309 309 310 311 311 312 314 316 319 321 322 323 324 325 326 327 327 328 328 327 326 325 324 323 322 320 319 317 315 312 309 306 302 299 295 292 288 285 282 280 279 277 276 275
285 283 283 284 286 288 289 290 291 293 294 296 297 297 296 295 294 293 295 297 297 295 294 295 297 299 302 306 311 314 316 318 320 321 320 316 310 308 312 313 312 311 311 311 312 313 313 313 314 315 317 318 319 320 322 324 327 328 329 330 330 329 329 328 327 326 324 322 320 318 316 313 309 306 302 299 296 292 289 285 283 281 279 278 276 275
293 292 292 293 294 296 296 297 297 298 298 299 298 298 297 297 296 297 297 297 295 294 294 296 298 301 304 307 310 312 313 316 319 320 319 315 311 310 312 312 312 311 312 312 313 313 313 314 314 314 314 316 317 318 321 324 326 328 329 330 330 330 330 329 328 326 324 322 320 319 316 313 310 308 305 302 299 295 291 288 285 283 281 279 277 275
309 308 307 305 304 302 301 301 301 301 301 300 300 300 299 299 299 298 297 295 294 294 294 297 300 302 303 303 302 303 306 312 317 320 319 315 310 309 311 311 310 311 312 311 310 310 311 312 314 315 315 315 316 318 320 322 324 325 327 327 327 327 328 328 327 325 324 323 321 319 317 315 313 311 309 306 303 300 296 292 289 285 282 280 278 276
314 312 310 308 306 305 304 303 303 303 302 301 301 300 300 299 299 298 297 296 295 296 297 299 301 303 303 299 296 297 302 311 318 321 320 314 310 309 310 309 308 309 310 308 306 303 303 305 310 314 316 315 315 317 319 321 322 323 323 323 323 324 326 327 325 324 323 323 322 321 319 318 316 314 312 310 308 305 301 298 294 290 285 282 279 277
312 310 308 306 305 305 304 304 304 303 302 301 301 300 300 300 300 300 299 299 299 299 300 300 302 304 305 303 302 304 308 314 320 322 319 313 309 308 308 308 307 307 309 308 305 301 298 300 305 310 314 315 315 315 317 319 320 321 321 320 320 322 324 325 324 323 323 323 323 323 322 321 320 318 315 313 311 309 306 304 300 295 290 286 283 281
311 309 307 306 305 305 304 304 304 303 303 303 302 302 302 302 301 301 300 300 299 299 300 301 303 305 306 307 308 311 315 318 321 321 318 312 308 307 307 306 306 306 307 307 306 303 300 300 303 306 309 312 314 314 315 316 318 319 319 318 318 319 321 323 322 322 322 323 323 323 324 323 322 320 317 315 313 311 309 307 303 300 296 292 289 287
310 309 308 307 306 306 305 305 305 306 306 305 305 304 304 303 301 300 299 298 299 300 302 304 306 308 308 308 308 311 315 319 322 322 319 314 311 309 307 306 306 306 307 306 305 304 302 302 302 303 304 307 310 313 315 316 317 317 317 317 317 317 319 320 320 320 321 321 322 323 324 324 323 321 319 317 316 314 312 309 306 303 300 296 291 287
312 311 310 310 309 309 308 308 308 308 308 307 307 306 304 302 300 298 297 297 297 300 303 307 310 312 312 311 310 311 315 320 323 324 324 320 316 312 307 307 308 308 306 305 304 303 301 301 302 303 303 303 306 310 315 317 317 316 315 316 317 317 318 319 319 319 319 319 320 322 323 323 322 321 320 319 318 316 313 310 307 305 303 299 293 287
315 315 314 313 313 311 311 310 309 309 308 308 307 306 304 302 299 297 296 296 297 300 303 308 312 315 316 316 314 314 318 321 325 328 329 327 322 315 309 308 310 310 306 304 303 303 302 300 301 302 301 300 301 305 311 315 316 315 315 316 317 317 318 319 320 319 317 317 318 320 321 321 320 320 320 320 319 317 313 310 308 306 304 301 298 293
319 318 317 316 315 314 312 311 311 310 309 308 307 306 304 301 299 296 295 296 297 301 306 310 313 315 317 317 317 317 319 323 327 330 331 330 326 319 314 312 312 313 310 306 304 303 301 298 298 298 300 300 301 303 307 310 311 313 315 318 318 318 318 319 319 317 315 314 315 317 318 319 318 318 319 319 318 316 314 312 310 309 307 305 302 298
321 319 318 318 317 316 315 313 312 311 309 308 307 305 303 300 298 296 296 298 301 305 310 313 315 316 316 316 317 318 321 325 329 331 332 331 328 324 319 315 314 315 315 312 307 303 300 297 295 295 297 299 302 306 309 310 310 311 314 317 318 319 319 318 317 314 313 313 313 314 316 317 317 317 317 318 317 316 315 315 314 312 311 309 306 302
322 321 321 320 319 317 316 315 313 311 310 308 306 305 303 301 300 298 299 302 306 311 314 316 317 317 316 317 318 321 325 328 331 332 332 331 329 326 321 318 316 317 318 315 310 305 301 299 297 297 297 298 300 303 307 308 309 310 311 311 312 315 319 318 316 314 314 313 313 314 315 316 316 316 315 315 315 314 313 313 313 312 311 310 308 306
325 325 325 323 321 319 317 316 314 312 311 310 310 309 307 305 303 304 305 308 312 315 317 318 318 317 318 319 322 326 329 332 333 333 332 331 329 326 323 320 319 319 319 315 312 309 305 302 301 300 300 300 301 303 304 306 309 310 308 306 307 311 316 317 317 316 316 315 314 314 314 314 314 314 313 313 312 311 311 310 310 310 310 308 307 304
330 329 327 326 324 323 321 319 317 316 315 315 314 313 311 309 308 308 310 313 316 319 320 320 319 319 320 323 327 331 333 334 334 333 333 332 330 327 324 323 322 322 320 316 313 311 309 306 303 302 302 303 302 301 302 306 309 310 308 306 307 310 313 315 317 317 314 313 313 313 313 313 313 312 312 311 310 310 310 309 308 307 306 306 305 303
332 331 330 330 329 328 327 326 326 324 322 320 318 316 315 314 315 315 316 317 319 320 320 320 320 322 326 330 334 335 336 335 334 333 333 332 331 329 327 326 326 325 322 317 314 312 313 310 306 304 305 306 304 301 300 304 308 310 309 309 308 307 305 310 315 317 314 312 312 313 313 314 314 313 312 311 310 309 309 308 307 306 305 304 303 302
333 334 335 335 335 335 336 335 334 331 328 326 324 323 322 321 321 320 320 321 322 322 322 323 325 328 332 336 337 337 336 335 334 334 334 334 333 332 330 329 329 328 325 319 315 313 313 311 310 309 309 307 304 301 300 302 305 308 311 312 310 305 301 306 311 313 313 313 314 315 316 316 315 314 312 310 309 308 308 308 307 307 307 306 304 302
335 337 338 339 340 341 340 338 336 334 332 331 329 328 328 327 325 324 324 324 324 325 326 328 331 333 333 335 337 338 336 335 335 335 335 336 335 334 332 331 330 328 326 322 319 315 312 310 311 313 314 309 304 301 300 302 304 307 311 313 311 308 306 308 309 310 309 311 313 315 317 317 315 312 309 307 307 307 306 306 305 305 306 306 305 303
338 339 340 341 340 339 337 336 335 334 333 332 332 332 331 331 329 327 326 327 328 329 329 332 333 333 332 334 336 337 336 336 336 337 337 336 335 334 333 331 330 328 325 323 321 319 315 313 313 314 313 309 305 303 302 303 303 305 309 311 311 309 308 308 308 308 308 309 310 314 317 317 313 308 305 305 305 305 305 304 303 303 304 304 303 302
342 343 343 341 339 337 336 335 334 333 332 331 332 333 334 333 331 330 329 328 329 330 331 333 334 334 332 333 335 335 334 334 336 337 337 338 337 335 333 332 331 329 326 324 322 321 319 319 318 315 310 305 303 303 305 306 305 305 306 309 310 308 307 307 309 309 309 308 310 313 316 315 310 305 304 305 304 303 303 302 302 302 302 302 301 301
343 344 342 340 337 335 334 334 333 332 330 331 332 334 334 334 333 331 330 329 330 331 332 334 335 334 333 334 335 335 333 332 333 335 336 337 337 336 334 332 331 329 328 326 324 323 321 321 319 316 311 305 301 302 306 308 308 307 307 308 308 307 306 308 310 311 310 309 310 312 313 311 307 306 305 304 303 302 301 301 301 300 300 300 299 298
343 342 341 338 335 333 333 332 332 331 330 331 332 333 333 333 333 331 331 330 331 332 334 335 334 333 332 333 334 335 332 331 331 333 334 334 335 336 335 334 333 331 329 328 327 325 324 323 320 317 313 308 304 303 306 308 310 309 308 306 305 305 305 307 309 310 310 309 310 311 311 309 307 306 304 302 300 300 300 300 300 299 299 298 297 297
342 340 338 336 334 332 331 331 331 331 331 332 333 333 332 332 332 332 332 332 332 334 336 337 336 333 331 331 333 333 331 330 330 331 332 333 333 333 333 333 333 332 329 328 327 326 324 322 320 318 316 311 306 304 304 306 307 307 305 303 303 302 303 304 307 309 309 309 310 310 309 308 307 306 303 300 299 299 300 299 299 298 298 298 297 296
339 338 336 334 332 331 330 330 331 332 333 333 333 333 332 332 333 334 334 334 335 337 338 339 338 335 330 330 331 331 329 329 328 328 330 332 332 332 331 331 331 329 325 323 322 321 319 317 316 315 316 315 311 305 301 301 302 302 299 299 301 301 301 302 305 308 309 309 309 309 308 307 306 305 303 300 299 298 298 297 297 297 297 297 296 296
Height
1500 1500 1499 1499 1498 1498 1497 1497 1497 1496 1495 1494 1493 1493 1492 1491 1491 1490 1490 1489 1488 1487 1485 1484 1483 1482 1481 1480 1479 1478 1477 1476 1475 1474 1473 1472 1471 1470 1469 1468 1467 1466 1466 1465 1464 1463 1463 1462 1462 1461 1461 1460 1460 1459 1459 1458 1458 1458 1457 1457 1456 1456 1456 1455 1455 1455 1454 1454 1453 1453 1453 1452 1452 1451 1451 1450 1450 1449 1449 1449 1449 1448 1448 1448 1448 1448
1498 1498 1497 1497 1496 1496 1495 1494 1494 1494 1493 1492 1491 1490 1489 1489 1488 1488 1488 1487 1486 1485 1484 1482 1481 1480 1479 1478 1477 1476 1475 1474 1473 1472 1471 1470 1469 1468 1467 1466 1465 1465 1464 1463 1462 1462 1461 1460 1460 1459 1459 1458 1458 1457 1457 1456 1456 1455 1455 1454 1454 1453 1453 1453 1452 1452 1452 1451 1451 1450 1450 1449 1448 1448 1448 1447 1447 1447 1446 1446 1446 1446 1445 1445 1445 1445
1496 1496 1495 1494 1494 1493 1493 1492 1492 1491 1491 1489 1488 1488 1487 1487 1486 1486 1485 1485 1484 1483 1482 1481 1479 1478 1477 1476 1475 1474 1473 1472 1471 1471 1470 1469 1468 1467 1466 1465 1464 1463 1462 1461 1461 1460 1459 1458 1458 1457 1457 1456 1456 1455 1455 1454 1453 1453 1453 1452 1451 1451 1450 1450 1449 1449 1449 1448 1448 1447 1447 1446 1446 1445 1444 1444 1444 1444 1443 1443 1443 1443 1443 1442 1442 1442
1494 1494 1493 1492 1492 1491 1491 1490 1489 1489 1488 1488 1486 1486 1485 1485 1484 1483 1483 1483 1482 1481 1480 1479 1478 1476 1475 1473 1473 1472 1471 1470 1469 1469 1468 1467 1466 1465 1464 1463 1462 1461 1460 1459 1459 1458 1458 1457 1456 1455 1455 1454 1454 1453 1453 1452 1451 1451 1450 1449 1449 1448 1448 1447 1447 1446 1446 1445 1444 1444 1443 1443 1443 1442 1442 1441 1441 1441 1440 1440 1440 1440 1440 1439 1439 1439
1493 1492 1491 1491 1490 1489 1488 1488 1488 1487 1486 1485 1484 1483 1483 1483 1482 1481 1481 1480 1479 1478 1478 1477 1475 1474 1473 1472 1471 1470 1469 1468 1468 1467 1466 1465 1464 1463 1462 1461 1460 1459 1459 1458 1457 1457 1456 1455 1454 1454 1453 1452 1452 1451 1450 1450 1449 1448 1447 1447 1446 1445 1444 1444 1443 1443 1442 1442 1441 1441 1440 1440 1439 1439 1438 1438 1438 1438 1438 1437 1437 1437 1437 1436 1436 1436
1491 1490 1489 1489 1488 1488 1487 1486 1485 1485 1484 1483 1482 1482 1481 1480 1480 1479 1479 1478 1477 1476 1475 1474 1473 1472 1471 1470 1469 1468 1468 1467 1466 1466 1465 1464 1463 1462 1461 1460 1459 1458 1457 1456 1456 1455 1454 1453 1453 1452 1451 1450 1449 1448 1448 1447 1446 1445 1444 1444 1443 1442 1441 1441 1440 1439 1439 1438 1438 1437 1437 1436 1436 1436 1435 1435 1435 1435 1435 1434 1434 1434 1434 1434 1434 1433
1488 1488 1488 1487 1486 1486 1485 1484 1483 1483 1482 1481 1480 1479 1479 1478 1478 1477 1477 1476 1475 1474 1473 1472 1471 1470 1469 1468 1467 1467 1466 1465 1465 1464 1463 1462 1461 1460 1459 1458 1457 1456 1455 1455 1454 1453 1452 1451 1450 1449 1448 1448 1447 1446 1445 1444 1443 1443 1442 1441 1440 1439 1438 1438 1437 1436 1435 1435 1434 1434 1434 1433 1433 1433 1433 1433 1432 1432 1432 1432 1432 1431 1431 1431 1431 1431
1487 1486 1486 1486 1485 1483 1483 1482 1482 1481 1481 1480 1479 1478 1477 1476 1476 1475 1474 1473 1472 1471 1470 1469 1468 1468 1467 1467 1466 1465 1464 1463 1463 1462 1461 1460 1459 1458 1457 1456 1455 1454 1453 1452 1452 1451 1450 1449 1448 1447 1446 1445 1444 1443 1443 1442 1441 1440 1439 1438 1437 1436 1435 1435 1434 1433 1433 1432 1432 1431 1431 1430 1430 1430 1430 1430 1429 1429 1429 1429 1429 1428 1428 1428 1428 1428
1485 1484 1484 1483 1483 1482 1481 1480 1480 1480 1479 1478 1478 1477 1475 1474 1473 1473 1472 1471 1470 1469 1468 1467 1466 1465 1465 1465 1464 1463 1462 1461 1461 1459 1458 1458 1457 1456 1455 1453 1453 1452 1451 1450 1449 1448 1448 1447 1446 1445 1444 1443 1442 1441 1440 1439 1438 1438 1437 1436 1435 1434 1433 1432 1431 1431 1430 1429 1429 1428 1428 1428 1428 1427 1427 1427 1427 1426 1426 1426 1426 1426 1426 1426 1426 1426
1484 1483 1482 1481 1481 1480 1480 1478 1478 1478 1478 1477 1476 1475 1474 1473 1472 1471 1470 1469 1468 1468 1467 1466 1464 1463 1463 1463 1463 1462 1460 1459 1458 1458 1456 1455 1454 1453 1452 1451 1450 1449 1448 1448 1447 1446 1445 1444 1443 1443 1442 1441 1440 1439 1438 1437 1436 1435 1434 1433 1433 1432 1431 1430 1429 1428 1428 1427 1426 1426 1426 1425 1425 1425 1424 1424 1424 1424 1424 1423 1423 1423 1423 1423 1423 1423
1482 1481 1481 1480 1479 1478 1478 1477 1476 1476 1475 1475 1474 1473 1473 1472 1471 1470 1468 1467 1466 1466 1465 1464 1463 1462 1461 1460 1460 1460 1458 1457 1456 1455 1454 1453 1452 1451 1450 1449 1448 1447 1446 1446 1445 1444 1443 1442 1441 1441 1440 1439 1438 1437 1436 1435 1434 1433 1432 1431 1430 1429 1428 1427 1426 1426 1425 1424 1424 1423 1423 1423 1423 1422 1422 1422 1422 1421 1421 1421 1421 1421 1421 1420 1420 1420
1480 1479 1479 1478 1477 1477 1476 1475 1475 1474 1473 1473 1473 1472 1472 1471 1470 1469 1467 1465 1464 1463 1463 1462 1461 1461 1460 1459 1458 1457 1456 1455 1454 1453 1452 1451 1450 1449 1448 1447 1446 1445 1444 1443 1443 1442 1441 1440 1439 1438 1438 1437 1436 1435 1434 1433 1432 1431 1430 1429 1428 1427 1426 1425 1424 1423 1423 1422 1422 1421 1421 1420 1420 1420 1420 1419 1419 1419 1418 1418 1418 1418 1417 1417 1417 1417
1478 1478 1477 1476 1476 1475 1475 1474 1473 1473 1473 1472 1472 1471 1470 1469 1469 1468 1466 1464 1463 1462 1461 1460 1459 1459 1458 1458 1457 1456 1454 1453 1452 1451 1450 1449 1448 1447 1446 1445 1444 1443 1442 1441 1440 1440 1439 1438 1437 1437 1436 1435 1434 1433 1432 1431 1430 1429 1428 1427 1425 1424 1423 1423 1422 1421 1420 1420 1419 1419 1418 1418 1418 1417 1417 1417 1416 1416 1416 1415 1415 1414 1414 1414 1414 1413
1477 1476 1476 1475 1474 1474 1474 1473 1473 1473 1472 1471 1471 1470 1469 1468 1467 1466 1464 1463 1462 1461 1460 1459 1458 1457 1457 1456 1456 1455 1453 1452 1451 1450 1449 1448 1447 1446 1445 1443 1442 1442 1441 1439 1438 1438 1438 1436 1435 1434 1434 1433 1432 1431 1430 1428 1428 1426 1425 1424 1423 1422 1421 1420 1419 1418 1418 1417 1417 1416 1416 1415 1415 1415 1414 1414 1413 1413 1413 1412 1412 1412 1411 1411 1411 1411
1476 1475 1474 1474 1473 1473 1473 1473 1472 1471 1471 1470 1469 1468 1467 1466 1465 1464 1463 1462 1461 1460 1459 1458 1457 1456 1456 1456 1455 1454 1453 1451 1450 1448 1448 1447 1446 1445 1444 1442 1440 1440 1439 1438 1437 1436 1435 1434 1433 1432 1431 1431 1430 1429 1428 1426 1425 1424 1423 1421 1420 1419 1418 1417 1416 1416 1415 1414 1414 1413 1413 1413 1412 1412 1412 1411 1411 1410 1410 1410 1409 1409 1408 1408 1408 1408
1474 1474 1473 1473 1473 1473 1472 1472 1471 1470 1469 1468 1468 1467 1466 1464 1464 1463 1462 1461 1460 1459 1458 1458 1456 1455 1454 1454 1454 1453 1452 1450 1449 1448 1446 1445 1444 1443 1443 1440 1438 1437 1437 1436 1435 1434 1433 1432 1431 1430 1429 1428 1427 1426 1425 1424 1423 1421 1420 1418 1418 1416 1415 1414 1414 1413 1412 1412 1411 1411 1410 1410 1410 1409 1409 1408 1408 1408 1407 1407 1407 1406 1406 1405 1405 1405
1473 1473 1473 1472 1472 1471 1471 1470 1469 1468 1468 1467 1466 1465 1464 1463 1463 1462 1461 1460 1459 1459 1458 1458 1456 1455 1453 1452 1452 1452 1451 1449 1447 1446 1444 1443 1442 1441 1441 1439 1437 1435 1434 1434 1433 1432 1431 1429 1428 1428 1427 1425 1424 1423 1422 1421 1420 1418 1417 1416 1415 1414 1413 1412 1411 1410 1410 1409 1409 1408 1408 1408 1407 1407 1406 1406 1405 1405 1404 1404 1403 1403 1403 1403 1402 1402
1473 1472 1471 1471 1470 1470 1469 1468 1468 1467 1466 1465 1464 1464 1463 1462 1462 1461 1460 1460 1459 1458 1458 1457 1456 1455 1453 1451 1450 1450 1450 1448 1446 1444 1442 1440 1439 1439 1438 1437 1435 1433 1432 1431 1430 1429 1428 1427 1426 1425 1423 1423 1422 1421 1419 1418 1417 1416 1414 1413 1412 1411 1410 1409 1408 1408 1407 1407 1406 1406 1405 1405 1404 1404 1403 1403 1402 1402 1402 1401 1401 1400 1400 1399 1399 1399
1471 1470 1470 1469 1468 1468 1468 1467 1466 1466 1465 1464 1463 1462 1462 1461 1460 1460 1459 1459 1458 1458 1457 1456 1455 1454 1453 1451 1449 1448 1448 1447 1444 1442 1440 1438 1437 1436 1436 1435 1433 1431 1430 1429 1428 1427 1426 1425 1423 1422 1421 1420 1418 1418 1417 1415 1414 1413 1412 1411 1409 1408 1408 1407 1406 1405 1405 1404 1403 1403 1402 1402 1401 1401 1400 1400 1399 1399 1399 1398 1398 1397 1397 1397 1396 1396
1469 1469 1468 1468 1467 1466 1466 1465 1465 1464 1464 1463 1462 1461 1460 1460 1459 1459 1458 1458 1457 1457 1456 1455 1453 1452 1451 1449 1447 1447 1446 1445 1443 1440 1438 1436 1435 1434 1434 1433 1431 1429 1428 1427 1427 1425 1424 1422 1421 1419 1418 1417 1416 1414 1413 1412 1411 1410 1409 1408 1407 1406 1405 1404 1403 1403 1402 1401 1401 1400 1399 1399 1398 1398 1397 1397 1396 1396 1396 1395 1395 1394 1394 1393 1393 1393
1468 1467 1467 1466 1466 1465 1464 1463 1463 1463 1463 1462 1461 1460 1460 1459 1458 1458 1457 1457 1456 1455 1454 1453 1452 1451 1449 1447 1445 1444 1444 1443 1441 1438 1436 1434 1433 1432 1432 1431 1429 1428 1426 1425 1424 1423 1422 1420 1418 1417 1415 1414 1413 1412 1411 1410 1408 1408 1407 1406 1405 1404 1403 1402 1401 1400 1399 1398 1398 1397 1396 1396 1395 1394 1394 1393 1393 1393 1392 1392 1392 1391 1391 1390 1390 1390
1466 1465 1465 1464 1464 1463 1463 1462 1462 1462 1462 1461 1460 1459 1459 1458 1457 1457 1456 1455 1454 1453 1453 1451 1450 1448 1447 1445 1443 1443 1443 1441 1439 1437 1435 1433 1431 1430 1431 1429 1428 1426 1424 1423 1422 1421 1420 1418 1416 1414 1413 1412 1411 1409 1408 1407 1406 1405 1404 1403 1402 1401 1400 1399 1398 1397 1396 1396 1395 1394 1393 1393 1392 1392 1391 1390 1390 1390 1389 1389 1388 1388 1388 1387 1387 1386
1464 1463 1463 1463 1462 1462 1461 1460 1460 1460 1460 1460 1459 1459 1458 1458 1457 1456 1455 1454 1453 1452 1450 1449 1448 1446 1445 1443 1442 1441 1440 1439 1438 1436 1434 1432 1429 1428 1428 1428 1426 1424 1423 1421 1420 1419 1417 1416 1414 1412 1411 1409 1408 1407 1406 1405 1403 1403 1401 1400 1399 1398 1397 1396 1395 1394 1393 1393 1392 1391 1391 1390 1389 1388 1388 1388 1387 1386 1386 1385 1385 1384 1384 1383 1383 1382
1462 1462 1461 1461 1460 1460 1459 1459 1458 1458 1459 1459 1458 1458 1458 1457 1456 1454 1453 1452 1451 1450 1448 1447 1445 1444 1443 1441 1440 1439 1439 1438 1437 1435 1433 1431 1428 1427 1427 1426 1424 1423 1421 1420 1418 1417 1415 1413 1411 1410 1408 1407 1406 1405 1403 1402 1401 1400 1399 1398 1397 1396 1394 1393 1393 1392 1391 1390 1389 1388 1388 1387 1386 1385 1385 1384 1383 1383 1382 1382 1381 1380 1380 1379 1379 1378
1460 1460 1459 1459 1459 1458 1458 1458 1458 1458 1459 1459 1458 1457 1456 1455 1453 1453 1452 1451 1449 1448 1446 1445 1443 1442 1440 1439 1438 1438 1437 1437 1435 1434 1432 1430 1427 1425 1425 1424 1423 1421 1419 1417 1416 1415 1413 1411 1409 1408 1407 1405 1404 1403 1401 1400 1399 1398 1396 1395 1394 1393 1392 1391 1390 1389 1388 1388 1387 1386 1385 1384 1383 1382 1382 1381 1380 1379 1379 1378 1378 1377 1377 1376 1376 1375
1459 1458 1458 1458 1458 1458 1458 1458 1458 1457 1457 1456 1455 1454 1453 1452 1451 1451 1450 1448 1447 1446 1445 1443 1442 1440 1439 1438 1437 1436 1435 1435 1433 1432 1431 1429 1426 1424 1423 1423 1422 1419 1417 1415 1414 1413 1411 1409 1407 1405 1404 1403 1402 1400 1399 1398 1397 1395 1394 1393 1392 1391 1390 1389 1388 1387 1386 1385 1384 1383 1382 1381 1380 1379 1378 1378 1377 1376 1376 1375 1375 1374 1374 1373 1373 1372
1458 1457 1457 1456 1456 1455 1455 1455 1454 1454 1454 1454 1453 1453 1452 1450 1449 1448 1447 1446 1445 1444 1443 1442 1440 1438 1437 1436 1435 1434 1433 1433 1432 1431 1429 1428 1425 1423 1422 1421 1420 1418 1415 1413 1412 1410 1409 1407 1404 1403 1402 1400 1399 1398 1396 1395 1394 1393 1392 1391 1390 1388 1387 1386 1385 1384 1383 1382 1381 1380 1379 1378 1377 1376 1375 1375 1374 1373 1373 1373 1372 1371 1371 1370 1369 1368
1456 1455 1455 1454 1454 1454 1453 1453 1453 1453 1452 1452 1451 1451 1450 1448 1447 1446 1445 1444 1443 1443 1441 1440 1438 1437 1436 1435 1433 1432 1431 1431 1430 1429 1428 1427 1424 1422 1420 1420 1418 1417 1414 1411 1409 1407 1406 1404 1403 1401 1399 1398 1397 1396 1394 1393 1392 1391 1389 1388 1387 1386 1385 1383 1382 1381 1380 1379 1378 1377 1376 1375 1374 1373 1373 1372 1371 1371 1370 1370 1369 1368 1368 1367 1366 1365
1454 1454 1453 1453 1453 1452 1452 1451 1451 1451 1450 1450 1449 1448 1448 1446 1445 1444 1443 1443 1442 1441 1440 1438 1438 1436 1435 1433 1432 1430 1429 1429 1429 1428 1427 1426 1423 1421 1419 1418 1417 1415 1413 1410 1407 1404 1403 1403 1401 1400 1398 1396 1395 1394 1392 1391 1389 1388 1387 1386 1384 1383 1382 1381 1380 1378 1377 1376 1375 1374 1373 1372 1372 1371 1370 1369 1368 1368 1367 1367 1366 1366 1365 1364 1363 1362
1453 1452 1452 1451 1451 1451 1450 1449 1449 1449 1448 1448 1447 1446 1445 1444 1443 1443 1442 1441 1440 1439 1438 1437 1436 1435 1434 1433 1430 1429 1428 1428 1428 1427 1426 1424 1422 1420 1418 1417 1415 1414 1412 1410 1406 1402 1400 1399 1399 1399 1397 1395 1393 1392 1390 1388 1387 1386 1384 1383 1381 1380 1379 1378 1377 1376 1374 1373 1373 1371 1370 1370 1369 1368 1367 1366 1366 1365 1364 1364 1363 1363 1362 1361 1360 1358
1451 1450 1450 1449 1449 1449 1448 1448 1447 1447 1446 1446 1445 1444 1443 1443 1442 1441 1440 1439 1438 1438 1437 1436 1435 1434 1433 1432 1431 1428 1426 1426 1427 1426 1425 1423 1421 1418 1417 1415 1413 1412 1412 1410 1408 1403 1398 1396 1395 1396 1395 1393 1391 1389 1388 1387 1385 1383 1382 1380 1378 1377 1376 1375 1374 1373 1372 1371 1370 1369 1368 1367 1366 1365 1364 1364 1363 1362 1362 1361 1361 1360 1359 1358 1357 1356
1449 1449 1448 1448 1448 1447 1447 1446 1446 1445 1444 1444 1443 1443 1442 1441 1440 1439 1438 1438 1437 1436 1435 1434 1433 1433 1432 1431 1430 1428 1425 1424 1425 1425 1423 1422 1419 1417 1416 1414 1412 1411 1410 1410 1408 1406 1401 1396 1393 1392 1392 1391 1389 1387 1386 1384 1383 1382 1380 1378 1376 1375 1374 1373 1372 1370 1369 1368 1367 1366 1365 1364 1363 1363 1362 1361 1360 1360 1359 1358 1358 1358 1357 1355 1354 1353
1448 1448 1447 1447 1446 1446 1445 1444 1444 1443 1443 1442 1442 1441 1440 1439 1439 1438 1437 1436 1435 1434 1434 1433 1432 1431 1430 1429 1428 1426 1424 1423 1423 1423 1422 1420 1418 1416 1414 1413 1411 1409 1408 1408 1407 1405 1403 1398 1393 1390 1388 1388 1387 1385 1383 1382 1381 1380 1378 1376 1374 1373 1371 1370 1369 1368 1367 1365 1364 1363 1362 1362 1361 1360 1359 1358 1358 1357 1357 1356 1355 1355 1354 1353 1352 1351
1447 1447 1446 1446 1445 1444 1444 1443 1443 1442 1441 1441 1440 1439 1438 1438 1437 1436 1435 1435 1434 1433 1432 1432 1431 1430 1429 1427 1426 1424 1422 1422 1422 1422 1421 1419 1417 1415 1413 1411 1410 1408 1407 1405 1404 1403 1401 1398 1394 1391 1388 1385 1384 1383 1382 1381 1379 1378 1376 1375 1373 1371 1369 1368 1367 1366 1364 1363 1362 1360 1359 1359 1358 1357 1356 1356 1355 1354 1354 1353 1353 1352 1352 1351 1350 1349
1446 1446 1445 1444 1444 1443 1443 1442 1441 1440 1440 1439 1438 1438 1437 1436 1435 1435 1434 1433 1433 1432 1431 1430 1429 1428 1428 1426 1424 1422 1421 1421 1421 1420 1419 1418 1416 1413 1412 1409 1408 1407 1406 1404 1402 1401 1398 1396 1394 1392 1388 1384 1381 1380 1380 1379 1378 1376 1374 1373 1371 1369 1368 1366 1365 1363 1362 1361 1359 1358 1357 1356 1355 1354 1353 1353 1352 1352 1351 1350 1350 1349 1349 1349 1348 1348
1445 1444 1444 1443 1443 1442 1441 1440 1439 1439 1438 1437 1437 1436 1435 1434 1434 1433 1432 1432 1431 1430 1430 1429 1428 1427 1426 1425 1423 1421 1420 1419 1419 1418 1417 1416 1414 1413 1410 1408 1407 1406 1404 1403 1401 1399 1397 1394 1392 1390 1388 1385 1381 1378 1377 1377 1376 1374 1373 1371 1370 1368 1366 1365 1363 1362 1360 1358 1357 1356 1355 1354 1353 1352 1351 1350 1350 1349 1348 1348 1347 1347 1347 1346 1346 1345
1444 1443 1443 1442 1441 1440 1440 1439 1438 1437 1437 1436 1435 1434 1434 1433 1432 1432 1431 1430 1430 1429 1428 1428 1427 1425 1424 1423 1422 1420 1418 1418 1417 1416 1415 1414 1413 1411 1409 1407 1405 1404 1403 1402 1399 1398 1396 1393 1390 1388 1386 1384 1381 1378 1375 1374 1373 1372 1371 1369 1368 1366 1364 1363 1361 1360 1358 1357 1355 1354 1353 1352 1351 1349 1348 1348 1347 1346 1346 1345 1345 1344 1344 1343 1343 1342
1443 1442 1441 1440 1440 1439 1438 1438 1437 1436 1435 1434 1434 1433 1432 1432 1431 1430 1430 1429 1428 1428 1427 1426 1425 1424 1423 1422 1420 1419 1417 1416 1415 1414 1413 1412 1411 1409 1408 1405 1403 1403 1402 1400 1398 1397 1395 1393 1390 1387 1384 1382 1380 1378 1375 1373 1371 1369 1368 1366 1365 1363 1362 1361 1359 1358 1357 1355 1353 1352 1351 1350 1349 1348 1346 1345 1345 1344 1343 1342 1342 1341 1341 1340 1339 1338
1441 1441 1440 1439 1438 1438 1437 1436 1435 1435 1434 1433 1433 1432 1431 1430 1430 1429 1428 1428 1427 1426 1425 1424 1423 1422 1421 1420 1418 1417 1416 1414 1413 1412 1411 1410 1409 1408 1406 1404 1402 1401 1400 1399 1397 1396 1394 1392 1389 1387 1383 1380 1378 1375 1373 1372 1370 1368 1365 1363 1362 1361 1360 1359 1358 1357 1355 1353 1352 1350 1349 1348 1347 1345 1344 1343 1342 1341 1340 1339 1338 1338 1338 1337 1336 1335
1440 1439 1439 1438 1437 1436 1435 1435 1434 1433 1433 1432 1431 1430 1430 1429 1428 1428 1427 1426 1426 1425 1424 1423 1422 1420 1419 1418 1417 1415 1414 1413 1411 1410 1409 1408 1407 1406 1404 1403 1401 1399 1398 1397 1395 1394 1392 1390 1388 1385 1383 1380 1377 1374 1372 1369 1368 1366 1365 1363 1360 1358 1357 1357 1356 1354 1353 1352 1350 1348 1347 1345 1344 1343 1342 1341 1340 1338 1338 1337 1336 1335 1335 1334 1333 1332
1439 1438 1438 1437 1436 1435 1434 1433 1433 1432 1431 1430 1430 1429 1428 1428 1427 1426 1425 1425 1424 1423 1422 1421 1420 1419 1418 1416 1415 1413 1412 1410 1409 1408 1407 1406 1405 1404 1403 1401 1399 1398 1396 1394 1393 1391 1390 1388 1386 1383 1381 1379 1376 1373 1370 1368 1366 1365 1364 1362 1359 1356 1354 1354 1353 1352 1351 1349 1348 1346 1345 1343 1342 1341 1339 1338 1337 1336 1335 1334 1333 1332 1332 1331 1330 1329
1438 1437 1436 1436 1435 1434 1433 1433 1432 1431 1430 1429 1428 1428 1427 1426 1425 1424 1424 1423 1422 1422 1421 1420 1418 1417 1416 1414 1413 1411 1410 1408 1407 1406 1405 1404 1403 1402 1400 1399 1398 1396 1394 1393 1391 1389 1388 1386 1384 1381 1379 1377 1375 1372 1369 1366 1364 1363 1362 1360 1357 1354 1352 1351 1350 1350 1349 1347 1346 1344 1343 1341 1340 1338 1337 1336 1335 1334 1333 1332 1331 1330 1329 1328 1328 1327
1437 1436 1435 1435 1434 1433 1432 1431 1430 1429 1429 1428 1427 1427 1426 1425 1424 1423 1422 1422 1421 1420 1419 1418 1417 1415 1413 1411 1410 1409 1408 1407 1405 1404 1403 1402 1401 1400 1398 1397 1396 1394 1393 1391 1389 1387 1385 1383 1382 1379 1377 1375 1373 1371 1368 1364 1362 1361 1360 1358 1357 1354 1351 1348 1347 1347 1347 1345 1344 1342 1341 1339 1338 1336 1334 1333 1332 1331 1330 1329 1328 1327 1326 1326 1325 1323
1436 1435 1434 1434 1433 1432 1431 1430 1429 1428 1428 1427 1426 1425 1425 1424 1423 1422 1421 1420 1420 1419 1418 1417 1415 1413 1412 1409 1408 1407 1405 1405 1404 1403 1401 1400 1399 1398 1396 1395 1393 1392 1391 1389 1387 1385 1383 1381 1379 1377 1376 1374 1372 1369 1366 1363 1360 1358 1357 1356 1355 1353 1351 1347 1345 1344 1343 1342 1341 1340 1338 1337 1335 1333 1332 1330 1329 1328 1327 1326 1325 1323 1323 1322 1321 1320
1435 1434 1434 1433 1432 1431 1430 1429 1428 1428 1427 1426 1425 1424 1423 1423 1422 1421 1420 1419 1418 1418 1417 1415 1414 1412 1409 1408 1406 1405 1403 1403 1402 1401 1399 1398 1397 1396 1394 1393 1392 1390 1388 1387 1385 1383 1381 1379 1376 1374 1373 1372 1370 1367 1364 1361 1359 1356 1354 1353 1352 1351 1348 1346 1344 1343 1341 1339 1338 1337 1336 1335 1333 1331 1329 1327 1326 1325 1324 1323 1322 1320 1319 1318 1318 1317
1434 1433 1433 1432 1431 1430 1429 1428 1427 1426 1426 1425 1424 1423 1423 1422 1421 1420 1419 1418 1417 1416 1415 1414 1412 1410 1408 1407 1405 1403 1402 1400 1399 1398 1397 1396 1395 1394 1393 1391 1390 1388 1387 1385 1383 1381 1379 1377 1375 1372 1371 1369 1367 1364 1362 1360 1358 1355 1353 1351 1350 1348 1346 1344 1343 1341 1340 1338 1336 1334 1333 1332 1331 1329 1327 1325 1323 1322 1321 1320 1319 1317 1316 1315 1314 1313
1433 1433 1432 1431 1430 1429 1428 1427 1426 1425 1424 1423 1423 1422 1421 1420 1420 1419 1418 1417 1416 1415 1413 1412 1411 1409 1407 1405 1404 1402 1400 1398 1397 1396 1395 1394 1393 1392 1391 1389 1388 1386 1385 1383 1381 1379 1377 1375 1373 1371 1369 1367 1364 1361 1359 1358 1356 1354 1352 1349 1348 1346 1344 1342 1340 1339 1338 1336 1334 1332 1331 1330 1329 1327 1324 1323 1321 1319 1318 1317 1316 1315 1313 1313 1311 1310
1433 1432 1431 1430 1429 1428 1427 1426 1425 1424 1423 1422 1421 1421 1420 1419 1418 1418 1417 1416 1415 1413 1412 1410 1409 1407 1406 1404 1403 1402 1400 1398 1396 1394 1393 1392 1391 1389 1388 1387 1386 1384 1383 1381 1379 1377 1375 1373 1371 1369 1368 1366 1363 1359 1356 1355 1354 1352 1350 1348 1346 1344 1341 1339 1338 1336 1335 1333 1331 1330 1329 1328 1326 1324 1322 1320 1318 1316 1315 1314 1313 1312 1311 1310 1309 1308
1432 1431 1430 1429 1428 1427 1426 1425 1424 1423 1422 1421 1420 1419 1419 1418 1418 1417 1415 1414 1413 1412 1410 1409 1407 1406 1404 1403 1401 1400 1399 1397 1395 1393 1392 1390 1389 1387 1386 1385 1383 1382 1380 1378 1377 1375 1373 1371 1369 1367 1366 1364 1361 1358 1354 1352 1351 1350 1348 1347 1345 1342 1339 1337 1335 1334 1333 1331 1329 1328 1327 1326 1324 1323 1321 1318 1316 1313 1312 1311 1310 1309 1308 1307 1306 1305
1431 1430 1429 1428 1427 1426 1425 1424 1423 1422 1421 1420 1419 1418 1417 1417 1416 1415 1414 1413 1412 1410 1409 1408 1406 1404 1403 1401 1400 1398 1398 1396 1394 1392 1390 1389 1388 1386 1384 1383 1381 1379 1377 1375 1373 1372 1370 1368 1366 1364 1363 1362 1360 1357 1354 1351 1348 1347 1346 1344 1343 1341 1339 1336 1333 1332 1331 1329 1328 1326 1325 1323 1322 1321 1319 1317 1314 1311 1309 1307 1306 1306 1305 1305 1304 1302
1430 1429 1428 1428 1426 1425 1424 1423 1422 1421 1420 1419 1418 1417 1416 1415 1414 1414 1413 1412 1410 1409 1408 1406 1405 1403 1402 1400 1398 1397 1396 1395 1393 1391 1389 1388 1386 1384 1383 1381 1379 1378 1375 1373 1371 1369 1368 1366 1363 1361 1360 1360 1359 1358 1354 1351 1348 1346 1344 1342 1341 1340 1338 1335 1333 1331 1329 1328 1326 1324 1323 1321 1320 1318 1317 1315 1313 1310 1307 1304 1303 1303 1303 1302 1301 1300